This is the latest recevied weather packets stored in our database for station/object F4FEB-13. If no packets are shown the sender has not sent any weather packets the latest 10 day(s).
| Time | Temp. | Humidity | Pressure | Rain* | Wind** | Luminosity | Snow |
|---|---|---|---|---|---|---|---|
| 1778237649 | 16.67° C | 63% | 1014.8 hPa | 0 mm | - | - | - |
| 1778237349 | 17.22° C | 70% | 1014.9 hPa | 0 mm | - | - | - |
| 1778237049 | 16.67° C | 67% | 1014.9 hPa | 0 mm | - | - | - |
| 1778236749 | 16.11° C | 70% | 1015 hPa | 0 mm | - | - | - |
| 1778236449 | 16.11° C | 70% | 1015 hPa | 0 mm | - | - | - |
| 1778236150 | 16.11° C | 70% | 1015 hPa | 0 mm | - | - | - |
| 1778236149 | 16.11° C | 70% | 1015 hPa | 0 mm | - | - | - |
| 1778235849 | 16.11° C | 66% | 1015.2 hPa | 0 mm | - | - | - |
| 1778235549 | 16.67° C | 68% | 1015.2 hPa | 0 mm | - | - | - |
| 1778235249 | 16.67° C | 67% | 1015.2 hPa | 0 mm | - | - | - |
| 1778234949 | 16.67° C | 71% | 1015 hPa | 0 mm | - | - | - |
| 1778234649 | 17.22° C | 65% | 1015.2 hPa | 0 mm | - | - | - |
| 1778234352 | 17.22° C | 67% | 1015.2 hPa | 0 mm | - | - | - |
| 1778234349 | 17.22° C | 67% | 1015.2 hPa | 0 mm | - | - | - |
| 1778234049 | 17.22° C | 69% | 1015.2 hPa | 0 mm | - | - | - |
| 1778233749 | 16.67° C | 70% | 1015.2 hPa | 0 mm | - | - | - |
| 1778233453 | 16.11° C | 72% | 1015.2 hPa | 0 mm | - | - | - |
| 1778233449 | 16.11° C | 72% | 1015.2 hPa | 0 mm | - | - | - |
| 1778233149 | 16.11° C | 72% | 1015.2 hPa | 0 mm | - | - | - |
| 1778232849 | 16.11° C | 72% | 1015.2 hPa | 0 mm | - | - | - |
| 1778232553 | 16.11° C | 71% | 1015.2 hPa | 0 mm | - | - | - |
| 1778232549 | 16.11° C | 71% | 1015.2 hPa | 0 mm | - | - | - |
| 1778232249 | 15.56° C | 71% | 1015.2 hPa | 0 mm | - | - | - |
| 1778231949 | 15.56° C | 72% | 1015.3 hPa | 0 mm | - | - | - |
| 1778231649 | 15.56° C | 72% | 1015.3 hPa | 0 mm | - | - | - |
* Rain latest hour (hover to see other rain measurements)
** Current wind speed in m/s (hover to see current wind gust speed)